Weather History for Cambridge, MD

Change the Weather History Date:

Tuesday, September 24, 2013

  Actual Average (KESN) Record (KESN)
Temperature  
Mean Temperature 56 °F -  
Max Temperature 69 °F 77 °F 94 °F (1970)
Min Temperature 42 °F 52 °F 37 °F (1974)
Degree Days  
Heating Degree Days 10    
Growing Degree Days 6 (Base 50)    
Moisture  
Dew Point 46 °F    
Average Humidity 75    
Maximum Humidity 100    
Minimum Humidity 43    
Precipitation  
Precipitation 0.00 in - - ()
Sea Level Pressure  
Sea Level Pressure 30.03 in    
Wind  
Wind Speed 2 mph (NW)    
Max Wind Speed 13 mph    
Max Gust Speed 16 mph    
Visibility 10 miles    
Events      
Averages and records for this station are not official NWS values.
T = Trace of Precipitation, MM = Missing Value Source: NWS Daily Summary

Daily Weather History Graph

Daily Weather History Graph

Search for Another Location

Airport:

Trip Planner

Search our weather history database for the weather conditions in past years. The results will help you decide how hot, cold, wet, or windy it might be!

Date:

Astronomy

Sep. 24, 2013 Rise Set
Actual Time 6:53 AM EDT 6:57 PM EDT
Civil Twilight 6:27 AM EDT 7:24 PM EDT
Nautical Twilight 5:56 AM EDT 7:54 PM EDT
Astronomical Twilight 5:25 AM EDT 8:26 PM EDT
Moon 10:17 PM EDT (9/24) 12:02 PM EDT (9/24)
Length of Visible Light 12h 56m
Length of Day
12h 03m
Waning Gibbous, 73% of the Moon is Illuminated
Sep 24
Waning Gibbous
Sep 26
Last Quarter
Oct 4
New
Oct 11
First Quarter
Oct 18
Full

Hourly Weather History & Observations

Time (EDT) Temp. Dew Point Humidity Pressure Visibility Wind Dir Wind Speed Gust Speed Precip Events Conditions
12:15 AM 46.4 °F 46.4 °F 100% 30.07 in 10.0 mi Calm Calm - N/A   Clear
12:35 AM 46.4 °F 46.4 °F 100% 30.07 in 10.0 mi Calm Calm - N/A   Clear
12:55 AM 46.4 °F 46.4 °F 100% 30.07 in 10.0 mi Calm Calm - N/A   Clear
1:15 AM 46.4 °F 44.6 °F 93% 30.07 in 10.0 mi Calm Calm - N/A   Clear
1:35 AM 46.4 °F 46.4 °F 100% 30.08 in 10.0 mi Calm Calm - N/A   Clear
1:55 AM 46.4 °F 46.4 °F 100% 30.08 in 10.0 mi Calm Calm - N/A   Clear
2:15 AM 46.4 °F 44.6 °F 93% 30.08 in 10.0 mi Calm Calm - N/A   Clear
2:35 AM 46.4 °F 44.6 °F 93% 30.08 in 10.0 mi Calm Calm - N/A   Clear
2:55 AM 44.6 °F 44.6 °F 100% 30.08 in 10.0 mi Calm Calm - N/A   Clear
3:15 AM 44.6 °F 44.6 °F 100% 30.07 in 10.0 mi Calm Calm - N/A   Clear
3:36 AM 44.6 °F 44.6 °F 100% 30.08 in 10.0 mi Calm Calm - N/A   Clear
3:56 AM 44.6 °F 42.8 °F 93% 30.07 in 10.0 mi Calm Calm - N/A   Clear
4:16 AM 44.6 °F 42.8 °F 93% 30.07 in 10.0 mi Calm Calm - N/A   Clear
4:36 AM 44.6 °F 42.8 °F 93% 30.07 in 10.0 mi Calm Calm - N/A   Clear
4:56 AM 44.6 °F 42.8 °F 93% 30.07 in 10.0 mi Calm Calm - N/A   Clear
5:36 AM 44.6 °F 42.8 °F 93% 30.08 in 10.0 mi Calm Calm - N/A   Clear
5:56 AM 44.6 °F 42.8 °F 93% 30.08 in 10.0 mi Calm Calm - N/A   Clear
6:16 AM 42.8 °F 41.0 °F 93% 30.08 in 10.0 mi Calm Calm - N/A   Clear
6:36 AM 42.8 °F 41.0 °F 93% 30.09 in 10.0 mi Calm Calm - N/A   Clear
6:56 AM 42.8 °F 41.0 °F 93% 30.09 in 10.0 mi Calm Calm - N/A   Clear
7:16 AM 42.8 °F 41.0 °F 93% 30.09 in 10.0 mi Calm Calm - N/A   Clear
7:36 AM 44.6 °F 42.8 °F 93% 30.10 in 10.0 mi Calm Calm - N/A   Clear
7:56 AM 48.2 °F 46.4 °F 93% 30.09 in 10.0 mi NNE 5.8 mph - N/A   Clear
8:16 AM 53.6 °F 46.4 °F 77% 30.09 in 10.0 mi NNE 3.5 mph - N/A   Clear
8:36 AM 55.4 °F 46.4 °F 72% 30.09 in 10.0 mi NNE 5.8 mph - N/A   Clear
8:56 AM 55.4 °F 46.4 °F 72% 30.09 in 10.0 mi North 6.9 mph - N/A   Clear
9:16 AM 57.2 °F 46.4 °F 67% 30.09 in 10.0 mi North 8.1 mph - N/A   Clear
9:36 AM 59.0 °F 46.4 °F 63% 30.09 in 10.0 mi North 8.1 mph - N/A   Clear
9:56 AM 59.0 °F 46.4 °F 63% 30.09 in 10.0 mi NNW 10.4 mph - N/A   Clear
10:16 AM 59.0 °F 46.4 °F 63% 30.09 in 10.0 mi NW 8.1 mph - N/A   Clear
10:36 AM 59.0 °F 46.4 °F 63% 30.09 in 10.0 mi North 9.2 mph - N/A   Clear
10:56 AM 60.8 °F 46.4 °F 59% 30.09 in 10.0 mi NW 10.4 mph - N/A   Clear
11:16 AM 60.8 °F 44.6 °F 55% 30.08 in 10.0 mi North 9.2 mph - N/A   Clear
11:36 AM 60.8 °F 46.4 °F 59% 30.07 in 10.0 mi NW 5.8 mph - N/A   Clear
11:56 AM 60.8 °F 46.4 °F 59% 30.07 in 10.0 mi NW 9.2 mph - N/A   Clear
12:17 PM 62.6 °F 44.6 °F 52% 30.06 in 10.0 mi NW 6.9 mph - N/A   Clear
12:37 PM 62.6 °F 46.4 °F 55% 30.05 in 10.0 mi NW 12.7 mph 16.1 mph N/A   Clear
12:57 PM 62.6 °F 44.6 °F 52% 30.04 in 10.0 mi WNW 10.4 mph - N/A   Clear
1:17 PM 62.6 °F 44.6 °F 52% 30.03 in 10.0 mi NNW 8.1 mph - N/A   Clear
1:37 PM 64.4 °F 44.6 °F 49% 30.02 in 10.0 mi NW 10.4 mph - N/A   Clear
1:57 PM 64.4 °F 44.6 °F 49% 30.02 in 10.0 mi NW 10.4 mph - N/A   Clear
2:17 PM 64.4 °F 44.6 °F 49% 30.00 in 10.0 mi NW 8.1 mph - N/A   Clear
2:37 PM 66.2 °F 46.4 °F 49% 29.99 in 10.0 mi NW 11.5 mph - N/A   Clear
2:57 PM 68.0 °F 46.4 °F 46% 29.99 in 10.0 mi NW 9.2 mph - N/A   Clear
3:17 PM 68.0 °F 46.4 °F 46% 29.98 in 10.0 mi NW 9.2 mph - N/A   Clear
3:37 PM 69.8 °F 48.2 °F 46% 29.97 in 10.0 mi NW 6.9 mph - N/A   Clear
3:57 PM 69.8 °F 46.4 °F 43% 29.97 in 10.0 mi WNW 9.2 mph - N/A   Clear
4:17 PM 69.8 °F 46.4 °F 43% 29.96 in 10.0 mi NW 5.8 mph - N/A   Clear
4:37 PM 69.8 °F 46.4 °F 43% 29.96 in 10.0 mi NW 6.9 mph - N/A   Clear
4:57 PM 69.8 °F 48.2 °F 46% 29.96 in 10.0 mi NW 3.5 mph - N/A   Clear
5:17 PM 69.8 °F 46.4 °F 43% 29.95 in 10.0 mi WNW 5.8 mph - N/A   Clear
5:37 PM 69.8 °F 48.2 °F 46% 29.95 in 10.0 mi WNW 3.5 mph - N/A   Clear
5:57 PM 68.0 °F 46.4 °F 46% 29.94 in 10.0 mi NW 3.5 mph - N/A   Clear
6:17 PM 68.0 °F 50.0 °F 52% 29.95 in 10.0 mi Calm Calm - N/A   Clear
6:37 PM 62.6 °F 50.0 °F 63% 29.96 in 10.0 mi Calm Calm - N/A   Clear
6:57 PM 60.8 °F 51.8 °F 72% 29.96 in 10.0 mi Calm Calm - N/A   Clear
7:17 PM 59.0 °F 50.0 °F 72% 29.96 in 10.0 mi Calm Calm - N/A   Clear
7:37 PM 55.4 °F 51.8 °F 88% 29.96 in 10.0 mi Calm Calm - N/A   Clear
7:57 PM 55.4 °F 51.8 °F 88% 29.96 in 10.0 mi Calm Calm - N/A   Clear
8:17 PM 55.4 °F 51.8 °F 88% 29.96 in 10.0 mi Calm Calm - N/A   Clear
8:37 PM 55.4 °F 51.8 °F 88% 29.96 in 10.0 mi Calm Calm - N/A   Clear
8:58 PM 53.6 °F 50.0 °F 88% 29.96 in 10.0 mi Calm Calm - N/A   Clear
9:18 PM 53.6 °F 50.0 °F 88% 29.96 in 10.0 mi Calm Calm - N/A   Clear
9:38 PM 53.6 °F 50.0 °F 88% 29.96 in 10.0 mi Calm Calm - N/A   Clear
9:58 PM 51.8 °F 50.0 °F 94% 29.96 in 10.0 mi Calm Calm - N/A   Clear
10:18 PM 50.0 °F 48.2 °F 94% 29.95 in 10.0 mi Calm Calm - N/A   Clear
10:38 PM 50.0 °F 48.2 °F 94% 29.95 in 10.0 mi Calm Calm - N/A   Clear
10:58 PM 50.0 °F 48.2 °F 94% 29.95 in 10.0 mi Calm Calm - N/A   Clear
11:18 PM 50.0 °F 48.2 °F 94% 29.95 in 10.0 mi Calm Calm - N/A   Clear
11:38 PM 50.0 °F 48.2 °F 94% 29.95 in 10.0 mi Calm Calm - N/A   Clear
11:58 PM 50.0 °F 48.2 °F 94% 29.96 in 10.0 mi Calm Calm - N/A   Clear